Miscellaneous Local Product
Issued by NWS Hastings, NE

Home | Current Version | Previous Version | Graphics & Text | Print | Product List | Glossary On
Versions: 1 2 3 4 5 6 7 8 9 10 11 12 13 14 15 16 17 18 19 20 21 22 23 24 25 26 27 28 29 30 31 32 33 34 35 36 37 38 39 40 41 42 43 44 45 46 47 48 49 50
000
AXUS43 KGID 231802
MISGRI

GID CWA HOURLY WEATHER ROUNDUP
NATIONAL WEATHER SERVICE HASTINGS NE
1200 PM CST FRI JAN 23 2015

NOTE: "FAIR" INDICATES FEW OR NO CLOUDS BELOW 12,000 FEET WITH NO
SIGNIFICANT WEATHER AND/OR OBSTRUCTIONS TO VISIBILITY.

...SOUTH CENTRAL NEBRASKA...

CITY           SKY/WX    TMP DP  RH WIND       PRES   REMARKS
GRAND ISLAND   MOSUNNY   43  21  41 W12       30.04F
HASTINGS       MOSUNNY   41  20  43 W12       30.03F
KEARNEY        MOSUNNY   46  21  36 NW16      30.04F
ORD            PTSUNNY   43  23  45 NW16      30.01F
YORK           SUNNY     36  25  64 SW8       30.03F WCI  29
AURORA         SUNNY     39  22  50 W6        30.04F
LEXINGTON      PTSUNNY   39  26  58 NW10      30.06F WCI  33
HOLDREGE       MOSUNNY   42  21  41 NW10G16   30.06F
HEBRON         SUNNY     38  21  50 SW12      30.08F WCI  31

...NEBRASKA PANHANDLE...

CITY           SKY/WX    TMP DP  RH WIND       PRES   REMARKS
CHADRON        CLOUDY    38  25  59 NW14      30.18S WCI  30
ALLIANCE       CLOUDY    38  26  62 NW14      30.14R WCI  30
SCOTTSBLUFF    CLOUDY    38  26  62 NW15      30.19R WCI  29
SIDNEY         MOSUNNY   43  24  47 N30G43    30.14S

...WESTERN AND NORTH CENTRAL NEBRASKA...

CITY           SKY/WX    TMP DP  RH WIND       PRES   REMARKS
VALENTINE      PTSUNNY   45  27  49 NW21G28   30.06F
AINSWORTH      PTSUNNY   41  27  57 NW15G23   30.04F
ONEILL         SUNNY     43  26  52 NW17      30.01F
BROKEN BOW     MOSUNNY   47  27  45 NW16G22   30.03F
IMPERIAL       PTSUNNY   45  21  38 N22       30.11F
NORTH PLATTE   PTSUNNY   40  24  53 W10       30.08F WCI  33
MCCOOK         MOSUNNY   48  22  35 NW17      30.09F

...EASTERN NEBRASKA...

CITY           SKY/WX    TMP DP  RH WIND       PRES   REMARKS
NORFOLK        MOSUNNY   42  23  46 NW9       29.99F
SO SIOUX CITY  PTSUNNY   38  26  62 SW7       30.00F WCI  33
TEKAMAH        PTSUNNY   38  27  64 SW10      30.03F WCI  31
COLUMBUS       MOSUNNY   37  21  52 SW8       30.04F WCI  31
ALBION         PTSUNNY   44  22  42 NW10      30.01F
OMAHA EPPLEY   PTSUNNY   37  24  59 SW10      30.05F WCI  30
OFFUTT AFB     MOSUNNY   39  25  57 S7        30.05F WCI  34
MILLARD        MOSUNNY   38  25  59 SW8       30.06F WCI  32
LINCOLN        SUNNY     40  25  55 S14       30.06F WCI  32
NEBRASKA CITY  SUNNY     38  22  52 SW12      30.08F WCI  31
BEATRICE       SUNNY     39  25  57 SW14      30.08F WCI  31
FALLS CITY     SUNNY     45  24  43 SW13      30.09F

...NORTHERN KANSAS...

CITY           SKY/WX    TMP DP  RH WIND       PRES   REMARKS
GOODLAND       PTSUNNY   44  21  40 N18G28    30.12S
HILL CITY      SUNNY     45  20  36 W13       30.09F
NORTON         CLEAR     39  18  41 NW10      30.07F WCI  32
PHILLIPSBURG   SUNNY     43  21  42 W8        30.08F
SMITH CENTER   SUNNY     36  19  51 W9        30.08F WCI  29
BELOIT         SUNNY     41  21  45 SW9       30.09F
HAYS           SUNNY     39  19  45 SW8       30.10F WCI  34
RUSSELL        FAIR      39  23  52 W14       30.09F WCI  31
CONCORDIA      SUNNY     40  24  53 SW12      30.07F WCI  33
SALINA         SUNNY     45  23  42 S20       30.11F
TOPEKA         SUNNY     42  25  50 VRB6      30.15F



USA.gov is the U.S. government's official web portal to all federal, state and local government web resources and services.